Hourly Data Report for September 02, 2017

All times are specified in Local Standard Time (LST). Add 1 hour to adjust for Daylight Saving Time where and when it is observed.

SUMMERSIDE
PRINCE EDWARD ISLAND

46°26'28.000" N
63°50'17.000" W
12.20 m
8300596
71702
WSD

Download Data

Hourly Data (September 2017)
Hourly Data Report for September 2, 2017
Temp Definition
°C
Dew Point Temp Definition
°C
Rel Hum Definition
%
Wind Dir Definition
10's deg

Wind Spd Definition
km/h
Visibility Definition
km
Stn Press Definition
kPa
Hmdx Definition


Wind Chill Definition


Weather Definition


TIME
00:00 11.2 9.8 91 33 13   100.74     LegendNANA
01:00 11.1 9.1 87 30 14   100.80     LegendNANA
02:00 10.9 9.1 89 30 19   100.88     LegendNANA
03:00 10.3 8.7 90 28 17   100.96     LegendNANA
04:00 10.4 7.8 84 29 18   101.02     LegendNANA
05:00 10.2 7.1 81 31 16   101.11     LegendNANA
06:00 10.0 7.0 82 31 22   101.14     LegendNANA
07:00 9.8 7.1 83 32 18   101.24     LegendNANA
08:00 11.4 7.3 76 33 20   101.33     LegendNANA
09:00 12.1 7.8 75 32 25   101.40     LegendNANA
10:00 12.4 8.4 77 32 20   101.48     LegendNANA
11:00 12.2 7.8 75 32 23   101.51     LegendNANA
12:00 12.5 7.3 70 31 20   101.56     LegendNANA
13:00 12.0 8.2 78 30 20   101.64     LegendNANA
14:00 12.6 7.4 70 33 18   101.67     LegendNANA
15:00 13.3 6.9 65 32 15   101.71     LegendNANA
16:00 14.5 7.2 62 31 15   101.75     LegendNANA
17:00 15.4 6.8 56 31 10   101.78     LegendNANA
18:00 15.2 7.6 60 29 7   101.83     LegendNANA
19:00 11.9 8.1 77 25 7   101.89     LegendNANA
20:00 10.6 7.6 82 23 4   101.99     LegendNANA
21:00 9.2 7.2 87 21 3   102.03     LegendNANA
22:00 9.4 7.4 88 18 7   102.08     LegendNANA
23:00 9.3 8.1 92 19 8   102.09     LegendNANA

Notes on Data Quality.

Legend

  • E = Estimated
  • M = Missing
  • NA = Not Available
  • ‡ = Partner data that is not subject to review by the National Climate Archives
Date modified: